Dades meteomassalio
Diari Summary for Gener 7, 2018 Units:  Metric    English   Both
« Previous Day
Next Day »
Diari Semanal Mensual Anual Personalitzat
  Maxima: Minima: Mijana:
Temperatura: -17.8 °C -18.1 °C -15.5 °C
Rosada: -17.8 °C -18.7 °C -16.2 °C
Humitat: Humidity % 84 % 92 %
Velocitat del vent: 0 km/h 0 km/h 1.9 km/h
Racha vent: 0 km/h - -
Vent:- - South
Pressio: 0 hPa 33866.8 hPa -
Pluja: 58.42 mm    
Historical Graphs
 
 
Tabular Data for Gener 7, 2018
Time Temperature Dew Point Pressure Wind Wind Speed Wind Gust Humidity Rainfall Rate (Hourly) solar Conditions
-17.8 °C -17.8 °C 0 hPa Calm     Humidity % 0 mm SolarRadiationWatts/m^2 W/m2 Conditions
00:02 -15 °C -15.7 °C 33880.3 hPa Calm     92 % 7.62 mm 0.0 W/m2 RA
00:04 -15.3 °C -15.9 °C 33880.3 hPa Calm     92 % 7.62 mm 0.0 W/m2 RA
00:09 -15.3 °C -15.9 °C 33880.3 hPa ENE 9 km/h   92 % 7.62 mm 0.0 W/m2 CLR
00:13 -15.3 °C -15.9 °C 33880.3 hPa Calm     92 % 0 mm 0.0 W/m2 CLR
00:18 -15.6 °C -16.3 °C 33866.8 hPa Calm     92 % 0 mm 0.0 W/m2 CLR
00:21 -15.6 °C -16.3 °C 33866.8 hPa Calm     92 % 0 mm 0.0 W/m2 CLR
00:23 -15.6 °C -16.3 °C 33866.8 hPa Calm     92 % 0 mm 0.0 W/m2 CLR
00:28 -15.6 °C -16.2 °C 33880.3 hPa Calm     93 % 0 mm 0.0 W/m2 CLR
00:30 -15.6 °C -16.3 °C 33880.3 hPa Calm     92 % 0 mm 0.0 W/m2 CLR
00:35 -15.6 °C -16.2 °C 33880.3 hPa Calm     93 % 0 mm 0.0 W/m2 CLR
00:40 -15.6 °C -16.2 °C 33880.3 hPa NNE 20.8 km/h 20.8 km/h 93 % 0 mm 0.0 W/m2 CLR
00:45 -15.6 °C -16.2 °C 33880.3 hPa Calm     93 % 0 mm 0.0 W/m2 CLR
00:50 -15.6 °C -16.2 °C 33880.3 hPa Calm     93 % 0 mm 0.0 W/m2 CLR
00:52 -15.6 °C -16.2 °C 33880.3 hPa Calm     93 % 0 mm 0.0 W/m2 CLR
00:56 -15.6 °C -16.2 °C 33880.3 hPa Calm     93 % 0 mm 0.0 W/m2 CLR
00:59 -15.6 °C -16.2 °C 33880.3 hPa Calm     93 % 0 mm 0.0 W/m2 CLR
01:04 -15.6 °C -16.2 °C 33880.3 hPa Calm     93 % 0 mm 0.0 W/m2 CLR
01:09 -15.9 °C -16.5 °C 33890.5 hPa Calm     93 % 0 mm 0.0 W/m2 CLR
01:12 -15.9 °C -16.5 °C 33880.3 hPa Calm     93 % 0 mm 0.0 W/m2 CLR
01:17 -15.9 °C -16.5 °C 33880.3 hPa Calm     93 % 0 mm 0.0 W/m2 CLR
01:22 -15.9 °C -16.5 °C 33880.3 hPa Calm     93 % 0 mm 0.0 W/m2 CLR
01:27 -15.9 °C -16.5 °C 33880.3 hPa Calm     93 % 0 mm 0.0 W/m2 CLR
01:28 -15.9 °C -16.5 °C 33880.3 hPa Calm     93 % 0 mm 0.0 W/m2 CLR
01:33 -15.9 °C -16.5 °C 33880.3 hPa Calm     93 % 7.62 mm 0.0 W/m2 RA
01:34 -15.9 °C -16.5 °C 33880.3 hPa Calm     93 % 7.62 mm 0.0 W/m2 RA
01:39 -15.6 °C -16.2 °C 33880.3 hPa Calm     93 % 7.62 mm 0.0 W/m2 CLR
01:49 -15.6 °C -16.2 °C 33880.3 hPa Calm     93 % 7.62 mm 0.0 W/m2 CLR
01:53 -15.6 °C -16.2 °C 33880.3 hPa Calm     93 % 7.62 mm 0.0 W/m2 CLR
01:56 -15.9 °C -16.5 °C 33880.3 hPa Calm     93 % 7.62 mm 0.0 W/m2 CLR
02:01 -15.9 °C -16.5 °C 33880.3 hPa Calm     93 % 7.62 mm 0.0 W/m2 CLR
02:06 -15.9 °C -16.5 °C 33880.3 hPa North 10.3 km/h 10.3 km/h 93 % 7.62 mm 0.0 W/m2 CLR
02:11 -15.9 °C -16.5 °C 33880.3 hPa North 5.1 km/h   93 % 7.62 mm 0.0 W/m2 CLR
02:15 -15.9 °C -16.5 °C 33880.3 hPa NNE 23.8 km/h 23.8 km/h 93 % 7.62 mm 0.0 W/m2 CLR
02:20 -15.9 °C -16.5 °C 33890.5 hPa NNW 20.9 km/h 20.9 km/h 93 % 7.62 mm 0.0 W/m2 CLR
02:22 -16.2 °C -16.8 °C 33890.5 hPa North 26.9 km/h 26.9 km/h 93 % 7.62 mm 0.0 W/m2 CLR
02:27 -16.2 °C -16.8 °C 33890.5 hPa North 36.2 km/h 36.2 km/h 93 % 7.62 mm 0.0 W/m2 CLR
02:32 -16.2 °C -16.8 °C 33890.5 hPa North 32.8 km/h 32.8 km/h 93 % 7.62 mm 0.0 W/m2 RA
02:38 -16.2 °C -16.8 °C 33890.5 hPa NNW 29.8 km/h 29.8 km/h 93 % 7.62 mm 0.0 W/m2 CLR
02:43 -16.2 °C -16.8 °C 33890.5 hPa Calm     93 % 7.62 mm 0.0 W/m2 CLR
02:45 -16.2 °C -16.8 °C 33890.5 hPa Calm     93 % 7.62 mm 0.0 W/m2 CLR
02:50 -16.2 °C -16.8 °C 33900.6 hPa Calm     93 % 12.7 mm 0.0 W/m2 RA
02:53 -16.2 °C -16.8 °C 33900.6 hPa Calm     93 % 12.7 mm 0.0 W/m2 CLR
02:55 -16.2 °C -16.8 °C 33900.6 hPa Calm     93 % 12.7 mm 0.0 W/m2 CLR
03:00 -16.2 °C -16.8 °C 33890.5 hPa West 26.9 km/h 26.9 km/h 93 % 12.7 mm 0.0 W/m2 RA
03:02 -16.2 °C -16.8 °C 33900.6 hPa WNW 26.9 km/h 26.9 km/h 93 % 12.7 mm 0.0 W/m2
03:08 -16.2 °C -16.8 °C 33900.6 hPa Calm     93 % 12.7 mm 0.0 W/m2 CLR
03:12 -16.2 °C -16.8 °C 33900.6 hPa WNW 9 km/h 9 km/h 93 % 12.7 mm 0.0 W/m2 CLR
03:17 -16.2 °C -16.8 °C 33900.6 hPa WNW 12.9 km/h 12.9 km/h 93 % 20.32 mm 0.0 W/m2 RA
03:22 -15.9 °C -16.5 °C 33900.6 hPa NW 9 km/h   93 % 25.4 mm 0.0 W/m2 RA
03:27 -15.9 °C -16.5 °C 33890.5 hPa Calm     93 % 25.4 mm 0.0 W/m2 CLR
03:32 -15.9 °C -16.5 °C 33890.5 hPa Calm     93 % 25.4 mm 0.0 W/m2 RA
03:35 -15.9 °C -16.5 °C 33890.5 hPa Calm     93 % 25.4 mm 0.0 W/m2 RA
03:41 -15.9 °C -16.5 °C 33890.5 hPa Calm     93 % 25.4 mm 0.0 W/m2 CLR
03:46 -15.9 °C -16.5 °C 33890.5 hPa NW 3.1 km/h   93 % 25.4 mm 0.0 W/m2 CLR
03:51 -15.9 °C -16.5 °C 33890.5 hPa Calm     93 % 20.32 mm 0.0 W/m2 CLR
03:56 -15.9 °C -16.5 °C 33890.5 hPa Calm     93 % 20.32 mm 0.0 W/m2 CLR
03:58 -15.9 °C -16.5 °C 33890.5 hPa Calm     93 % 12.7 mm 0.0 W/m2 CLR
04:03 -15.9 °C -16.5 °C 33890.5 hPa Calm     93 % 12.7 mm 0.0 W/m2 CLR
04:08 -15.9 °C -16.5 °C 33890.5 hPa Calm     93 % 12.7 mm 0.0 W/m2 CLR
04:09 -15.9 °C -16.5 °C 33890.5 hPa Calm     93 % 12.7 mm 0.0 W/m2 CLR
04:14 -15.9 °C -16.5 °C 33900.6 hPa Calm     93 % 12.7 mm 0.0 W/m2 CLR
04:19 -15.9 °C -16.5 °C 33900.6 hPa Calm     93 % 12.7 mm 0.0 W/m2 RA
04:23 -15.9 °C -16.5 °C 33890.5 hPa Calm     93 % 12.7 mm 0.0 W/m2
04:28 -15.9 °C -16.5 °C 33890.5 hPa Calm     93 % 12.7 mm 0.0 W/m2 CLR
04:33 -15.9 °C -16.5 °C 33890.5 hPa Calm     93 % 7.62 mm 0.0 W/m2 CLR
04:38 -15.9 °C -16.5 °C 33890.5 hPa Calm     93 % 7.62 mm 0.0 W/m2 CLR
04:41 -15.9 °C -16.5 °C 33890.5 hPa Calm     93 % 7.62 mm 0.0 W/m2 CLR
04:44 -15.9 °C -16.5 °C 33890.5 hPa Calm     93 % 7.62 mm 0.0 W/m2 CLR
04:49 -15.9 °C -16.5 °C 33890.5 hPa Calm     93 % 7.62 mm 0.0 W/m2 CLR
04:54 -15.9 °C -16.5 °C 33890.5 hPa Calm     93 % 7.62 mm 0.0 W/m2 CLR
04:57 -15.9 °C -16.5 °C 33890.5 hPa Calm     93 % 7.62 mm 0.0 W/m2 CLR
04:59 -15.9 °C -16.5 °C 33890.5 hPa Calm     93 % 7.62 mm 0.0 W/m2 CLR
05:04 -15.9 °C -16.5 °C 33900.6 hPa Calm     93 % 12.7 mm 0.0 W/m2 RA
05:07 -15.9 °C -16.5 °C 33900.6 hPa Calm     93 % 12.7 mm 0.0 W/m2 CLR
05:09 -15.9 °C -16.5 °C 33900.6 hPa Calm     93 % 12.7 mm 0.0 W/m2 CLR
05:14 -15.9 °C -16.5 °C 33900.6 hPa WNW 15 km/h 15 km/h 93 % 12.7 mm 0.0 W/m2 CLR
05:19 -15.9 °C -16.5 °C 33900.6 hPa Calm     93 % 7.62 mm 0.0 W/m2 CLR
05:24 -15.9 °C -16.5 °C 33900.6 hPa Calm     93 % 7.62 mm 0.0 W/m2 CLR
05:34 -15.9 °C -16.5 °C 33900.6 hPa Calm     93 % 7.62 mm 0.0 W/m2 CLR
05:35 -15.9 °C -16.5 °C 33900.6 hPa Calm     93 % 7.62 mm 0.0 W/m2 CLR
05:41 -15.9 °C -16.5 °C 33900.6 hPa Calm     93 % 7.62 mm 0.0 W/m2 CLR
05:45 -15.9 °C -16.5 °C 33900.6 hPa Calm     93 % 7.62 mm 0.0 W/m2 CLR
05:50 -15.9 °C -16.5 °C 33900.6 hPa Calm     93 % 7.62 mm 0.0 W/m2 CLR
05:52 -15.9 °C -16.5 °C 33900.6 hPa Calm     93 % 7.62 mm 0.0 W/m2 CLR
05:57 -15.9 °C -16.5 °C 33900.6 hPa Calm     93 % 7.62 mm 0.0 W/m2 CLR
05:59 -15.9 °C -16.5 °C 33900.6 hPa Calm     93 % 7.62 mm 0.0 W/m2 CLR
06:04 -15.9 °C -16.5 °C 33914.2 hPa Calm     93 % 0 mm 0.0 W/m2 CLR
06:09 -15.9 °C -16.5 °C 33914.2 hPa Calm     93 % 0 mm 0.0 W/m2 CLR
06:10 -15.9 °C -16.5 °C 33914.2 hPa Calm     93 % 0 mm 0.0 W/m2 CLR
06:15 -15.9 °C -16.5 °C 33914.2 hPa Calm     93 % 0 mm 0.0 W/m2 CLR
06:20 -15.9 °C -16.5 °C 33914.2 hPa Calm     93 % 0 mm 0.0 W/m2 CLR
06:25 -15.9 °C -16.5 °C 33914.2 hPa Calm     93 % 0 mm 0.0 W/m2 CLR
06:30 -15.9 °C -16.5 °C 33914.2 hPa Calm     93 % 0 mm 0.0 W/m2 CLR
06:35 -15.9 °C -16.5 °C 33924.3 hPa Calm     93 % 0 mm 0.0 W/m2 CLR
06:41 -15.9 °C -16.5 °C 33924.3 hPa Calm     93 % 0 mm 0.0 W/m2 CLR
06:43 -15.9 °C -16.5 °C 33924.3 hPa Calm     93 % 0 mm 0.0 W/m2 CLR
06:48 -15.9 °C -16.5 °C 33924.3 hPa Calm     93 % 0 mm 0.0 W/m2 CLR
06:51 -15.9 °C -16.5 °C 33924.3 hPa Calm     93 % 0 mm 0.0 W/m2 CLR
06:56 -15.9 °C -16.5 °C 33924.3 hPa Calm     93 % 0 mm 0.0 W/m2 CLR
06:59 -15.9 °C -16.5 °C 33924.3 hPa Calm     93 % 0 mm 0.0 W/m2 CLR
07:04 -15.9 °C -16.5 °C 33924.3 hPa Calm     93 % 7.62 mm 0.0 W/m2 RA
07:06 -15.9 °C -16.5 °C 33924.3 hPa Calm     93 % 7.62 mm 0.0 W/m2 RA
07:11 -15.9 °C -16.5 °C 33937.9 hPa Calm     93 % 7.62 mm 0.0 W/m2
07:16 -15.9 °C -16.5 °C 33924.3 hPa Calm     93 % 7.62 mm 0.0 W/m2 CLR
07:21 -15.9 °C -16.5 °C 33937.9 hPa Calm     93 % 7.62 mm 0.0 W/m2 CLR
07:26 -15.9 °C -16.5 °C 33937.9 hPa Calm     93 % 7.62 mm 0.0 W/m2 CLR
07:31 -15.9 °C -16.5 °C 33948 hPa Calm     93 % 7.62 mm 0.0 W/m2 CLR
07:32 -15.9 °C -16.5 °C 33948 hPa Calm     93 % 7.62 mm 0.0 W/m2 CLR
07:37 -15.9 °C -16.5 °C 33948 hPa Calm     93 % 7.62 mm 0.0 W/m2 CLR
07:42 -15.9 °C -16.5 °C 33948 hPa Calm     93 % 7.62 mm 0.0 W/m2 CLR
07:45 -15.9 °C -16.5 °C 33948 hPa Calm     93 % 7.62 mm 0.0 W/m2 CLR
07:50 -15.9 °C -16.5 °C 33948 hPa Calm     93 % 7.62 mm 0.0 W/m2 CLR
07:55 -15.9 °C -16.5 °C 33948 hPa Calm     93 % 7.62 mm 0.0 W/m2 CLR
07:58 -15.9 °C -16.5 °C 33948 hPa Calm     93 % 7.62 mm 0.0 W/m2 CLR
08:03 -15.9 °C -16.5 °C 33948 hPa Calm     93 % 7.62 mm 0.0 W/m2 CLR
08:08 -15.9 °C -16.5 °C 33948 hPa Calm     93 % 0 mm 0.0 W/m2 CLR
08:13 -15.9 °C -16.5 °C 33958.2 hPa Calm     93 % 0 mm 0.0 W/m2 CLR
08:18 -15.9 °C -16.5 °C 33958.2 hPa Calm     93 % 0 mm 0.0 W/m2 OVC
08:23 -15.9 °C -16.5 °C 33958.2 hPa Calm     93 % 0 mm 0.0 W/m2 OVC
08:29 -15.9 °C -16.5 °C 33948 hPa Calm     93 % 0 mm 0.0 W/m2 OVC
08:33 -15.9 °C -16.5 °C 33958.2 hPa Calm     93 % 0 mm 0.0 W/m2 OVC
08:35 -15.9 °C -16.5 °C 33958.2 hPa Calm     93 % 0 mm 5.0 W/m2 OVC
08:40 -15.9 °C -16.5 °C 33958.2 hPa Calm     93 % 0 mm 5.0 W/m2 OVC
08:45 -15.9 °C -16.5 °C 33958.2 hPa Calm     93 % 0 mm 9.0 W/m2 BKN
08:50 -15.9 °C -16.5 °C 33958.2 hPa Calm     93 % 0 mm 12.0 W/m2 BKN
08:52 -15.9 °C -16.5 °C 33958.2 hPa Calm     93 % 0 mm 12.0 W/m2 BKN
08:57 -16.2 °C -16.8 °C 33971.7 hPa Calm     93 % 0 mm 18.0 W/m2 BKN
09:02 -16.2 °C -16.8 °C 33971.7 hPa Calm     93 % 0 mm 19.0 W/m2 BKN
09:07 -16.2 °C -16.8 °C 33971.7 hPa Calm     93 % 0 mm 19.0 W/m2 BKN
09:10 -16.2 °C -16.8 °C 33971.7 hPa Calm     93 % 0 mm 21.0 W/m2 BKN
09:15 -15.9 °C -16.5 °C 33971.7 hPa Calm     93 % 0 mm 21.0 W/m2 BKN
09:20 -15.9 °C -16.5 °C 33981.9 hPa Calm     93 % 0 mm 28.0 W/m2 BKN
09:24 -15.9 °C -16.5 °C 33981.9 hPa Calm     93 % 0 mm 26.0 W/m2 BKN
09:29 -15.9 °C -16.5 °C 33981.9 hPa Calm     93 % 0 mm 26.0 W/m2 BKN
09:34 -15.9 °C -16.5 °C 33992.1 hPa Calm     93 % 0 mm 26.0 W/m2 BKN
09:35 -15.9 °C -16.5 °C 33981.9 hPa Calm     93 % 0 mm 26.0 W/m2 BKN
09:41 -15.9 °C -16.5 °C 33981.9 hPa Calm     93 % 0 mm 26.0 W/m2 BKN
09:44 -15.9 °C -16.5 °C 33981.9 hPa Calm     93 % 0 mm 26.0 W/m2 BKN
09:49 -15.9 °C -16.5 °C 33992.1 hPa Calm     93 % 0 mm 32.0 W/m2 BKN
09:54 -15.9 °C -16.5 °C 33992.1 hPa Calm     93 % 0 mm 37.0 W/m2 BKN
09:58 -15.9 °C -16.5 °C 33992.1 hPa Calm     93 % 0 mm 40.0 W/m2 BKN
10:03 -15.9 °C -16.5 °C 33992.1 hPa Calm     93 % 0 mm 65.0 W/m2 BKN
10:08 -15.6 °C -16.2 °C 34005.6 hPa Calm     93 % 0 mm 88.0 W/m2 SCT
10:11 -15.6 °C -16.2 °C 34005.6 hPa Calm     93 % 0 mm 93.0 W/m2 FEW
10:16 -15.6 °C -16.2 °C 34005.6 hPa Calm     93 % 0 mm 86.0 W/m2 CLR
10:17 -15.6 °C -16.2 °C 34005.6 hPa Calm     93 % 0 mm 88.0 W/m2 CLR
10:21 -15.6 °C -16.2 °C 34015.8 hPa Calm     93 % 0 mm 97.0 W/m2 CLR
10:23 -15.6 °C -16.2 °C 34015.8 hPa Calm     93 % 0 mm 98.0 W/m2 CLR
10:27 -15.6 °C -16.2 °C 34015.8 hPa Calm     93 % 0 mm 97.0 W/m2 CLR
10:32 -15.6 °C -16.2 °C 34015.8 hPa Calm     93 % 0 mm 100.0 W/m2 CLR
10:38 -15.6 °C -16.2 °C 34015.8 hPa Calm     93 % 0 mm 100.0 W/m2 CLR
10:43 -15.6 °C -16.2 °C 34029.3 hPa Calm     93 % 0 mm 102.0 W/m2 CLR
10:44 -15.6 °C -16.2 °C 34029.3 hPa Calm     93 % 0 mm 102.0 W/m2 CLR
10:49 -15.6 °C -16.2 °C 34029.3 hPa Calm     93 % 0 mm 114.0 W/m2 CLR
10:52 -15.6 °C -16.2 °C 34029.3 hPa Calm     93 % 0 mm 167.0 W/m2 CLR
10:57 -15.6 °C -16.2 °C 34029.3 hPa Calm     93 % 0 mm 114.0 W/m2 CLR
11:02 -15.6 °C -16.2 °C 34029.3 hPa Calm     93 % 0 mm 116.0 W/m2 CLR
11:07 -15.6 °C -16.2 °C 34029.3 hPa Calm     93 % 0 mm 111.0 W/m2 CLR
11:12 -15.6 °C -16.2 °C 34029.3 hPa Calm     93 % 0 mm 148.0 W/m2 CLR
11:15 -15.6 °C -16.2 °C 34029.3 hPa Calm     93 % 0 mm 155.0 W/m2 CLR
11:20 -15.3 °C -15.9 °C 34039.5 hPa Calm     93 % 0 mm 156.0 W/m2 CLR
11:25 -15.3 °C -15.9 °C 34039.5 hPa Calm     93 % 0 mm 156.0 W/m2 CLR
11:30 -15.3 °C -15.9 °C 34039.5 hPa Calm     93 % 0 mm 156.0 W/m2 CLR
11:31 -15.3 °C -15.9 °C 34039.5 hPa Calm     93 % 0 mm 156.0 W/m2 CLR
11:32 -15.3 °C -15.9 °C 34039.5 hPa Calm     93 % 0 mm 158.0 W/m2 CLR
11:37 -15.3 °C -15.9 °C 34039.5 hPa Calm     93 % 0 mm 181.0 W/m2 CLR
11:38 -15.3 °C -15.9 °C 34039.5 hPa Calm     93 % 0 mm 181.0 W/m2 CLR
11:43 -15.3 °C -15.9 °C 34049.6 hPa Calm     93 % 0 mm 144.0 W/m2 CLR
11:47 -15.3 °C -15.9 °C 34049.6 hPa Calm     93 % 0 mm 137.0 W/m2 CLR
11:52 -15 °C -15.6 °C 34049.6 hPa Calm     93 % 0 mm 155.0 W/m2 CLR
11:56 -15 °C -15.6 °C 34049.6 hPa Calm     93 % 0 mm 179.0 W/m2 CLR
12:02 -15 °C -15.6 °C 34049.6 hPa Calm     93 % 0 mm 162.0 W/m2 CLR
12:07 -15 °C -15.6 °C 34049.6 hPa Calm     93 % 0 mm 155.0 W/m2 CLR
12:12 -15 °C -15.6 °C 34049.6 hPa Calm     93 % 0 mm 167.0 W/m2 CLR
12:13 -15 °C -15.6 °C 34049.6 hPa Calm     93 % 0 mm 176.0 W/m2 CLR
12:19 -14.7 °C -15.3 °C 34049.6 hPa Calm     93 % 0 mm 162.0 W/m2 CLR
12:23 -14.7 °C -15.3 °C 34049.6 hPa Calm     93 % 0 mm 181.0 W/m2 CLR
12:28 -14.7 °C -15.3 °C 34049.6 hPa Calm     93 % 0 mm 200.0 W/m2 CLR
12:33 -14.7 °C -15.3 °C 34049.6 hPa Calm     93 % 0 mm 197.0 W/m2 CLR
12:34 -14.7 °C -15.3 °C 34049.6 hPa Calm     93 % 0 mm 197.0 W/m2 CLR
12:38 -14.7 °C -15.3 °C 34049.6 hPa Calm     93 % 0 mm 193.0 W/m2 CLR
12:43 -14.7 °C -15.3 °C 34049.6 hPa Calm     93 % 0 mm 197.0 W/m2 CLR
12:48 -14.7 °C -15.3 °C 34049.6 hPa Calm     93 % 0 mm 214.0 W/m2 CLR
12:50 -14.7 °C -15.3 °C 34049.6 hPa Calm     93 % 0 mm 213.0 W/m2 CLR
12:55 -14.7 °C -15.4 °C 34049.6 hPa Calm     92 % 0 mm 195.0 W/m2 CLR
12:56 -14.7 °C -15.4 °C 34049.6 hPa Calm     92 % 0 mm 193.0 W/m2 CLR
13:01 -14.7 °C -15.4 °C 34049.6 hPa Calm     92 % 0 mm 192.0 W/m2 CLR
13:06 -14.7 °C -15.4 °C 34049.6 hPa Calm     92 % 0 mm 197.0 W/m2 CLR
13:11 -14.7 °C -15.4 °C 34049.6 hPa Calm     92 % 0 mm 188.0 W/m2 CLR
13:14 -14.7 °C -15.3 °C 34049.6 hPa Calm     93 % 0 mm 186.0 W/m2 CLR
13:19 -14.4 °C -14.9 °C 34049.6 hPa Calm     93 % 0 mm 178.0 W/m2 CLR
13:24 -14.4 °C -15.1 °C 34049.6 hPa Calm     92 % 0 mm 186.0 W/m2 CLR
13:25 -14.4 °C -15.1 °C 34063.2 hPa Calm     92 % 0 mm 199.0 W/m2 CLR
13:32 -14.4 °C -14.9 °C 34063.2 hPa Calm     93 % 0 mm 202.0 W/m2 CLR
13:37 -14.4 °C -15.1 °C 34049.6 hPa Calm     92 % 0 mm 221.0 W/m2 CLR
13:41 -14.4 °C -14.9 °C 34063.2 hPa Calm     93 % 0 mm 220.0 W/m2 CLR
13:46 -14.4 °C -15.1 °C 34063.2 hPa Calm     92 % 0 mm 165.0 W/m2 CLR
13:49 -14.4 °C -15.1 °C 34063.2 hPa Calm     92 % 0 mm 167.0 W/m2 CLR
13:53 -14.4 °C -15.1 °C 34063.2 hPa NE 6 km/h 6 km/h 92 % 0 mm 183.0 W/m2 CLR
13:58 -14.4 °C -15.1 °C 34063.2 hPa Calm     92 % 0 mm 178.0 W/m2 CLR
14:03 -14.4 °C -14.9 °C 34063.2 hPa Calm     93 % 0 mm 160.0 W/m2 CLR
14:05 -14.4 °C -15.1 °C 34063.2 hPa NE 3.1 km/h   92 % 0 mm 151.0 W/m2 CLR
14:11 -14.1 °C -14.7 °C 34063.2 hPa ENE 2.6 km/h 2.6 km/h 93 % 0 mm 162.0 W/m2 CLR
14:12 -14.1 °C -14.7 °C 34063.2 hPa NE 6 km/h 6 km/h 93 % 0 mm 163.0 W/m2 CLR
14:17 -14.4 °C -15.1 °C 34063.2 hPa Calm     92 % 0 mm 174.0 W/m2 CLR
14:18 -14.4 °C -15.1 °C 34063.2 hPa Calm     92 % 0 mm 174.0 W/m2 CLR
14:23 -14.4 °C -14.9 °C 34063.2 hPa Calm     93 % 0 mm 172.0 W/m2 CLR
14:24 -14.4 °C -14.9 °C 34063.2 hPa Calm     93 % 0 mm 171.0 W/m2 CLR
14:29 -14.4 °C -14.9 °C 34063.2 hPa Calm     93 % 0 mm 169.0 W/m2 CLR
14:32 -14.1 °C -14.7 °C 34063.2 hPa Calm     93 % 0 mm 223.0 W/m2 CLR
14:37 -14.1 °C -14.8 °C 34073.3 hPa Calm     92 % 0 mm 192.0 W/m2 CLR
14:40 -14.1 °C -14.7 °C 34073.3 hPa Calm     93 % 0 mm 197.0 W/m2 CLR
14:45 -14.1 °C -14.7 °C 34073.3 hPa Calm     93 % 0 mm 206.0 W/m2 CLR
14:50 -13.8 °C -14.4 °C 34073.3 hPa Calm     92 % 0 mm 336.0 W/m2 CLR
14:55 -13.8 °C -14.3 °C 34073.3 hPa Calm     93 % 0 mm 232.0 W/m2 CLR
15:00 -13.8 °C -14.4 °C 34073.3 hPa NE 6 km/h 6 km/h 92 % 0 mm 223.0 W/m2 CLR
15:05 -13.8 °C -14.4 °C 34073.3 hPa NE 6 km/h   92 % 0 mm 220.0 W/m2 CLR
15:10 -13.8 °C -14.4 °C 34073.3 hPa Calm     92 % 0 mm 214.0 W/m2 CLR
15:11 -13.8 °C -14.4 °C 34073.3 hPa Calm     92 % 0 mm 216.0 W/m2 CLR
15:14 -13.8 °C -14.4 °C 34073.3 hPa ENE 9 km/h   92 % 0 mm 207.0 W/m2 CLR
15:19 -13.4 °C -14.1 °C 34073.3 hPa Calm     92 % 0 mm 197.0 W/m2 CLR
15:24 -13.4 °C -14.1 °C 34086.9 hPa Calm     92 % 0 mm 193.0 W/m2 CLR
15:25 -13.4 °C -14.1 °C 34086.9 hPa Calm     92 % 0 mm 186.0 W/m2 CLR
15:30 -13.4 °C -14.1 °C 34086.9 hPa Calm     92 % 0 mm 192.0 W/m2 CLR
15:33 -13.4 °C -14.1 °C 34086.9 hPa ENE 2.6 km/h   92 % 0 mm 183.0 W/m2 CLR
15:38 -13.4 °C -14.1 °C 34086.9 hPa ENE 3.1 km/h 3.1 km/h 92 % 0 mm 174.0 W/m2 CLR
15:43 -13.4 °C -14.1 °C 34086.9 hPa NE 3.1 km/h 3.1 km/h 92 % 0 mm 176.0 W/m2 CLR
15:44 -13.4 °C -14.1 °C 34097 hPa NE 3.1 km/h 3.1 km/h 92 % 0 mm 176.0 W/m2 CLR
15:50 -13.4 °C -14.1 °C 34097 hPa Calm     92 % 0 mm 155.0 W/m2 CLR
15:51 -13.4 °C -14.1 °C 34097 hPa Calm     92 % 0 mm 153.0 W/m2 CLR
15:56 -13.4 °C -14.1 °C 34097 hPa Calm     92 % 0 mm 144.0 W/m2 CLR
15:58 -13.4 °C -14.2 °C 34097 hPa Calm     91 % 0 mm 137.0 W/m2 CLR
16:01 -13.4 °C -14.1 °C 34097 hPa Calm     92 % 0 mm 142.0 W/m2 CLR
16:06 -13.2 °C -13.9 °C 34097 hPa Calm     91 % 0 mm 132.0 W/m2 CLR
16:07 -13.2 °C -13.9 °C 34097 hPa Calm     91 % 0 mm 127.0 W/m2 CLR
16:13 -13.2 °C -13.9 °C 34097 hPa Calm     91 % 0 mm 121.0 W/m2 CLR
16:15 -13.2 °C -13.9 °C 34097 hPa Calm     91 % 0 mm 127.0 W/m2 CLR
16:20 -13.2 °C -13.9 °C 34097 hPa Calm     91 % 0 mm 142.0 W/m2 CLR
16:25 -13.2 °C -14 °C 34097 hPa NE 6 km/h 6 km/h 90 % 0 mm 162.0 W/m2 CLR
16:30 -13.2 °C -14 °C 34097 hPa Calm     90 % 0 mm 160.0 W/m2 CLR
16:35 -13.2 °C -14.1 °C 34097 hPa Calm     89 % 0 mm 118.0 W/m2 CLR
16:39 -13.2 °C -14.1 °C 34097 hPa Calm     89 % 0 mm 134.0 W/m2 CLR
16:41 -13.2 °C -14.2 °C 34097 hPa Calm     88 % 0 mm 146.0 W/m2 CLR
16:46 -13.2 °C -14.3 °C 34107.2 hPa ENE 6 km/h 6 km/h 87 % 0 mm 141.0 W/m2 CLR
16:48 -13.2 °C -14.3 °C 34107.2 hPa ENE 5.1 km/h 5.1 km/h 87 % 0 mm 142.0 W/m2 CLR
16:52 -13.2 °C -14.4 °C 34107.2 hPa ENE 6 km/h 6 km/h 86 % 0 mm 128.0 W/m2 CLR
16:58 -13.2 °C -14.4 °C 34107.2 hPa ENE 9 km/h 9 km/h 86 % 0 mm 111.0 W/m2 CLR
17:01 -13.2 °C -14.5 °C 34107.2 hPa ENE 9 km/h 9 km/h 85 % 0 mm 93.0 W/m2 CLR
17:05 -13.2 °C -14.6 °C 34107.2 hPa ENE 11.9 km/h 11.9 km/h 84 % 0 mm 84.0 W/m2 FEW
17:06 -13.2 °C -14.6 °C 34107.2 hPa ENE 9 km/h 9 km/h 84 % 0 mm 81.0 W/m2 FEW
17:11 -13.2 °C -14.6 °C 34120.7 hPa ENE 9 km/h 9 km/h 84 % 0 mm 62.0 W/m2 SCT
17:16 -13.2 °C -14.5 °C 34120.7 hPa Calm     85 % 0 mm 42.0 W/m2 BKN
17:21 -13.2 °C -14.5 °C 34120.7 hPa Calm     85 % 0 mm 32.0 W/m2 BKN
17:22 -13.4 °C -14.9 °C 34120.7 hPa Calm     84 % 0 mm 30.0 W/m2 BKN
17:23 -13.4 °C -14.9 °C 34120.7 hPa Calm     84 % 0 mm 30.0 W/m2 BKN
17:28 -13.4 °C -14.8 °C 34120.7 hPa Calm     85 % 0 mm 23.0 W/m2 BKN
17:33 -13.8 °C -15.1 °C 34120.7 hPa Calm     85 % 0 mm 19.0 W/m2 BKN
17:34 -13.8 °C -15.1 °C 34120.7 hPa Calm     85 % 0 mm 18.0 W/m2 BKN
17:38 -13.8 °C -14.9 °C 34130.9 hPa Calm     86 % 0 mm 14.0 W/m2 BKN
17:43 -14.1 °C -15.3 °C 34130.9 hPa North 18.2 km/h 18.2 km/h 86 % 0 mm 11.0 W/m2 BKN
17:48 -14.1 °C -15.2 °C 34130.9 hPa NNW 11.9 km/h 11.9 km/h 87 % 0 mm 7.0 W/m2 OVC
17:53 -14.4 °C -15.4 °C 34130.9 hPa NNW 23.8 km/h 23.8 km/h 88 % 0 mm 5.0 W/m2 OVC
17:58 -14.4 °C -15.3 °C 34130.9 hPa North 29.8 km/h 29.8 km/h 89 % 0 mm 0.0 W/m2 CLR
18:03 -14.4 °C -15.2 °C 34130.9 hPa North 29.8 km/h 29.8 km/h 90 % 0 mm 0.0 W/m2 CLR
18:05 -14.4 °C -15.2 °C 34130.9 hPa North 29.8 km/h 29.8 km/h 90 % 0 mm 0.0 W/m2 CLR
18:10 -14.7 °C -15.5 °C 34144.4 hPa North 32.8 km/h 32.8 km/h 90 % 0 mm 0.0 W/m2 CLR
18:15 -14.7 °C -15.4 °C 34154.6 hPa NNW 20.9 km/h 20.9 km/h 91 % 0 mm 0.0 W/m2 CLR
18:16 -14.7 °C -15.4 °C 34144.4 hPa NNW 11.9 km/h 11.9 km/h 91 % 0 mm 0.0 W/m2 CLR
18:21 -14.7 °C -15.4 °C 34154.6 hPa Calm     91 % 0 mm 0.0 W/m2 CLR
18:24 -14.7 °C -15.4 °C 34154.6 hPa Calm     91 % 0 mm 0.0 W/m2 CLR
18:29 -14.7 °C -15.4 °C 34154.6 hPa Calm     92 % 0 mm 0.0 W/m2 CLR
18:34 -14.7 °C -15.4 °C 34164.7 hPa Calm     92 % 0 mm 0.0 W/m2 CLR
18:40 -15 °C -15.7 °C 34164.7 hPa Calm     92 % 0 mm 0.0 W/m2 CLR
18:43 -15 °C -15.7 °C 34164.7 hPa Calm     92 % 0 mm 0.0 W/m2 CLR
18:47 -15 °C -15.7 °C 34164.7 hPa Calm     92 % 0 mm 0.0 W/m2 CLR
18:52 -15 °C -15.7 °C 34164.7 hPa Calm     92 % 0 mm 0.0 W/m2 CLR
18:55 -15 °C -15.7 °C 34164.7 hPa Calm     92 % 0 mm 0.0 W/m2 CLR
19:00 -15 °C -15.7 °C 34164.7 hPa Calm     92 % 0 mm 0.0 W/m2 CLR
19:05 -15.3 °C -15.9 °C 34164.7 hPa Calm     92 % 0 mm 0.0 W/m2 CLR
19:10 -15.3 °C -15.9 °C 34164.7 hPa Calm     92 % 0 mm 0.0 W/m2 CLR
19:13 -15.3 °C -15.9 °C 34164.7 hPa Calm     92 % 0 mm 0.0 W/m2 CLR
19:18 -15.6 °C -16.3 °C 34178.3 hPa Calm     92 % 0 mm 0.0 W/m2 CLR
19:23 -15.6 °C -16.3 °C 34178.3 hPa Calm     92 % 0 mm 0.0 W/m2 CLR
19:26 -15.6 °C -16.3 °C 34178.3 hPa Calm     92 % 0 mm 0.0 W/m2 CLR
19:31 -15.6 °C -16.3 °C 34178.3 hPa Calm     92 % 0 mm 0.0 W/m2 CLR
19:36 -15.6 °C -16.3 °C 34178.3 hPa Calm     92 % 0 mm 0.0 W/m2 CLR
19:40 -15.9 °C -16.6 °C 34188.4 hPa Calm     92 % 0 mm 0.0 W/m2 CLR
19:42 -15.9 °C -16.6 °C 34188.4 hPa Calm     92 % 0 mm 0.0 W/m2 CLR
19:47 -15.9 °C -16.6 °C 34188.4 hPa Calm     92 % 0 mm 0.0 W/m2 CLR
19:52 -16.2 °C -16.9 °C 34188.4 hPa Calm     92 % 0 mm 0.0 W/m2 CLR
19:57 -16.2 °C -16.9 °C 34198.6 hPa Calm     92 % 0 mm 0.0 W/m2 CLR
20:02 -16.6 °C -17.2 °C 34198.6 hPa Calm     92 % 0 mm 0.0 W/m2 CLR
20:04 -16.6 °C -17.2 °C 34198.6 hPa Calm     92 % 0 mm 0.0 W/m2 CLR
20:09 -16.6 °C -17.2 °C 34198.6 hPa Calm     92 % 0 mm 0.0 W/m2 CLR
20:14 -16.6 °C -17.2 °C 34198.6 hPa Calm     92 % 0 mm 0.0 W/m2 CLR
20:17 -16.6 °C -17.2 °C 34198.6 hPa Calm     92 % 0 mm 0.0 W/m2 CLR
20:22 -16.6 °C -17.2 °C 34198.6 hPa Calm     92 % 0 mm 0.0 W/m2 CLR
20:27 -16.6 °C -17.2 °C 34198.6 hPa Calm     92 % 7.62 mm 0.0 W/m2 RA
20:32 -16.6 °C -17.2 °C 34198.6 hPa Calm     92 % 7.62 mm 0.0 W/m2
20:37 -16.6 °C -17.2 °C 34198.6 hPa Calm     92 % 7.62 mm 0.0 W/m2 CLR
20:42 -16.6 °C -17.2 °C 34212.1 hPa Calm     92 % 7.62 mm 0.0 W/m2 CLR
20:44 -16.6 °C -17.2 °C 34212.1 hPa Calm     92 % 7.62 mm 0.0 W/m2 CLR
20:49 -16.6 °C -17.2 °C 34212.1 hPa Calm     92 % 7.62 mm 0.0 W/m2 CLR
20:51 -16.6 °C -17.2 °C 34212.1 hPa Calm     92 % 7.62 mm 0.0 W/m2 CLR
20:56 -16.6 °C -17.1 °C 34212.1 hPa Calm     93 % 7.62 mm 0.0 W/m2 CLR
21:01 -16.6 °C -17.2 °C 34212.1 hPa Calm     92 % 7.62 mm 0.0 W/m2 CLR
21:06 -16.8 °C -17.4 °C 34212.1 hPa Calm     93 % 7.62 mm 0.0 W/m2 CLR
21:11 -16.8 °C -17.4 °C 34212.1 hPa Calm     93 % 7.62 mm 0.0 W/m2 CLR
21:13 -16.8 °C -17.4 °C 34212.1 hPa Calm     93 % 7.62 mm 0.0 W/m2 CLR
21:18 -16.8 °C -17.4 °C 34212.1 hPa Calm     93 % 7.62 mm 0.0 W/m2 CLR
21:19 -16.8 °C -17.5 °C 34212.1 hPa Calm     92 % 7.62 mm 0.0 W/m2 CLR
21:24 -16.8 °C -17.4 °C 34222.3 hPa Calm     93 % 7.62 mm 0.0 W/m2 CLR
21:25 -16.8 °C -17.4 °C 34222.3 hPa Calm     93 % 7.62 mm 0.0 W/m2 CLR
21:31 -16.8 °C -17.4 °C 34222.3 hPa Calm     93 % 0 mm 0.0 W/m2 CLR
21:37 -16.8 °C -17.4 °C 34222.3 hPa Calm     93 % 0 mm 0.0 W/m2 CLR
21:42 -16.6 °C -17.1 °C 34222.3 hPa Calm     93 % 0 mm 0.0 W/m2 CLR
21:47 -16.8 °C -17.4 °C 34235.8 hPa Calm     93 % 0 mm 0.0 W/m2 CLR
21:52 -16.8 °C -17.5 °C 34235.8 hPa Calm     92 % 0 mm 0.0 W/m2 CLR
21:54 -17.2 °C -17.8 °C 34235.8 hPa Calm     92 % 0 mm 0.0 W/m2 CLR
21:59 -17.2 °C -17.7 °C 34235.8 hPa Calm     93 % 0 mm 0.0 W/m2 CLR
22:00 -17.2 °C -17.7 °C 34235.8 hPa Calm     93 % 0 mm 0.0 W/m2 CLR
22:05 -17.2 °C -17.7 °C 34235.8 hPa Calm     93 % 0 mm 0.0 W/m2 CLR
22:10 -17.2 °C -17.7 °C 34235.8 hPa Calm     93 % 0 mm 0.0 W/m2 CLR
22:12 -17.2 °C -17.7 °C 34235.8 hPa Calm     93 % 0 mm 0.0 W/m2 CLR
22:17 -17.2 °C -17.7 °C 34235.8 hPa Calm     93 % 0 mm 0.0 W/m2 CLR
22:22 -17.2 °C -17.7 °C 34235.8 hPa Calm     93 % 0 mm 0.0 W/m2 CLR
22:27 -17.2 °C -17.7 °C 34235.8 hPa Calm     93 % 0 mm 0.0 W/m2 CLR
22:32 -17.2 °C -17.7 °C 34235.8 hPa Calm     93 % 0 mm 0.0 W/m2 CLR
22:33 -17.2 °C -17.7 °C 34235.8 hPa Calm     93 % 0 mm 0.0 W/m2 CLR
22:38 -17.2 °C -17.7 °C 34246 hPa Calm     93 % 0 mm 0.0 W/m2 CLR
22:41 -17.2 °C -17.7 °C 34246 hPa Calm     93 % 0 mm 0.0 W/m2 CLR
22:46 -17.2 °C -17.7 °C 34246 hPa Calm     93 % 0 mm 0.0 W/m2 CLR
22:51 -17.2 °C -17.7 °C 34235.8 hPa Calm     93 % 0 mm 0.0 W/m2 CLR
22:56 -17.4 °C -18 °C 34246 hPa Calm     93 % 0 mm 0.0 W/m2 CLR
23:01 -17.4 °C -18 °C 34246 hPa Calm     93 % 0 mm 0.0 W/m2 CLR
23:04 -17.4 °C -18 °C 34256.2 hPa Calm     93 % 0 mm 0.0 W/m2 CLR
23:09 -17.8 °C -18.3 °C 34246 hPa Calm     93 % 0 mm 0.0 W/m2 CLR
23:12 -17.8 °C -18.3 °C 34246 hPa Calm     93 % 0 mm 0.0 W/m2 CLR
23:17 -17.8 °C -18.3 °C 34246 hPa Calm     93 % 0 mm 0.0 W/m2 CLR
23:19 -17.8 °C -18.3 °C 34246 hPa Calm     93 % 0 mm 0.0 W/m2 CLR
23:24 -17.8 °C -18.3 °C 34256.2 hPa Calm     93 % 0 mm 0.0 W/m2 CLR
23:29 -18.1 °C -18.7 °C 34256.2 hPa Calm     93 % 0 mm 0.0 W/m2 CLR
23:34 -18.1 °C -18.7 °C 34256.2 hPa Calm     93 % 0 mm 0.0 W/m2 CLR
23:38 -18.1 °C -18.7 °C 34256.2 hPa Calm     93 % 0 mm 0.0 W/m2 CLR
23:42 -18.1 °C -18.7 °C 34256.2 hPa Calm     93 % 0 mm 0.0 W/m2 CLR
23:48 -18.1 °C -18.7 °C 34256.2 hPa Calm     93 % 0 mm 0.0 W/m2 CLR
23:50 -18.1 °C -18.7 °C 34256.2 hPa Calm     93 % 0 mm 0.0 W/m2 CLR
23:55 -17.8 °C -18.3 °C 34256.2 hPa Calm     93 % 0 mm 0.0 W/m2 CLR
Lo Temps de Massalio
Compliments of Weather Underground - 1.25 mb